Greenland, AR

9:41 AM CDT on August 27, 2016 (GMT -0500)
Drake

Weather History for KFYV - August, 2013

Change the Weather History Date:

Friday, August 23, 2013

  Actual Average Record
Temperature  
Mean Temperature 76 °F 76 °F  
Max Temperature 91 °F 89 °F 98 °F (2010)
Min Temperature 61 °F 64 °F 48 °F (1949)
Cooling Degree Days 11 12  
Month to date cooling degree days 230 292  
Year to date cooling degree days 1011 1041  
Since 1 June cooling degree days 875 928  
Growing Degree Days 26 (Base 50)    
Moisture  
Dew Point 65 °F    
Average Humidity 67    
Maximum Humidity 100    
Minimum Humidity 34    
Precipitation  
Precipitation 0.00 in 0.09 in 3.62 in (2006)
Month to date precipitation 2.82 2.36  
Year to date precipitation 31.07 31.01  
Sea Level Pressure  
Sea Level Pressure 30.06 in    
Wind  
Wind Speed 2 mph (East)    
Max Wind Speed 9 mph    
Max Gust Speed 16 mph    
Visibility 5 miles    
Events Fog    
T = Trace of Precipitation, MM = Missing Value Source: NWS Daily Summary

Daily Weather History Graph

Daily Weather History Graph

Search for Another Location

Airport or City:

Trip Planner

Search our weather history database for the weather conditions in past years. The results will help you decide how hot, cold, wet, or windy it might be!

Date:

Astronomy

Aug. 23, 2013 Rise Set
Actual Time 6:41 AM CDT 7:56 PM CDT
Civil Twilight 6:14 AM CDT 8:22 PM CDT
Nautical Twilight 5:43 AM CDT 8:54 PM CDT
Astronomical Twilight 5:09 AM CDT 9:27 PM CDT
Moon 9:23 PM CDT (8/23) 9:30 AM CDT (8/23)
Length of Visible Light 14h 07m
Length of Day
13h 14m
Waning Gibbous, 91% of the Moon is Illuminated
Aug 23
Waning Gibbous
Aug 28
Last Quarter
Sep 5
New
Sep 12
First Quarter
Sep 19
Full

Hourly Weather History & Observations

Time (CDT) Temp. Heat Index Dew Point Humidity Pressure Visibility Wind Dir Wind Speed Gust Speed Precip Events Conditions
12:53 AM 66.9 °F - 66.9 °F 100% 30.05 in 4.0 mi Calm Calm - N/A   Clear
1:20 AM 66.2 °F - 66.2 °F 100% 30.09 in 1.5 mi Calm Calm - N/A   Clear
1:27 AM 66.2 °F - 66.2 °F 100% 30.09 in 1.2 mi Calm Calm - N/A   Partly Cloudy
1:31 AM 66.2 °F - 66.2 °F 100% 30.09 in 3.0 mi Calm Calm - N/A   Partly Cloudy
1:38 AM 66.2 °F - 64.4 °F 94% 30.08 in 1.5 mi Calm Calm - N/A   Scattered Clouds
1:40 AM 66.2 °F - 64.4 °F 94% 30.08 in 0.8 mi Calm Calm - N/A   Mist
1:53 AM 64.9 °F - 64.9 °F 100% 30.04 in 0.5 mi Calm Calm - N/A Fog Fog
2:16 AM 64.4 °F - 64.4 °F 100% 30.07 in 1.2 mi Calm Calm - N/A   Partly Cloudy
2:28 AM 64.4 °F - 64.4 °F 100% 30.07 in 3.0 mi Calm Calm - N/A   Partly Cloudy
2:53 AM 64.0 °F - 64.0 °F 100% 30.03 in 4.0 mi Calm Calm - N/A   Clear
3:53 AM 63.0 °F - 63.0 °F 100% 30.03 in 4.0 mi Calm Calm - N/A   Clear
4:12 AM 64.4 °F - 64.4 °F 100% 30.08 in 1.2 mi Calm Calm - N/A   Clear
4:14 AM 62.6 °F - 62.6 °F 100% 30.08 in 1.0 mi Calm Calm - N/A   Mist
4:34 AM 62.6 °F - 62.6 °F 100% 30.07 in 1.8 mi Calm Calm - N/A   Partly Cloudy
4:45 AM 62.6 °F - 62.6 °F 100% 30.07 in 1.0 mi Calm Calm - N/A   Mist
4:53 AM 62.1 °F - 62.1 °F 100% 30.04 in 0.5 mi Calm Calm - N/A Fog Fog
5:08 AM 62.6 °F - 62.6 °F 100% 30.08 in 1.2 mi Calm Calm - N/A   Scattered Clouds
5:23 AM 62.6 °F - 62.6 °F 100% 30.08 in 3.0 mi Calm Calm - N/A   Partly Cloudy
5:45 AM 62.6 °F - 62.6 °F 100% 30.09 in 1.8 mi Calm Calm - N/A   Clear
5:53 AM 62.1 °F - 62.1 °F 100% 30.05 in 0.5 mi Calm Calm - N/A Fog Fog
5:59 AM 62.6 °F - 62.6 °F 100% 30.09 in 6.0 mi Calm Calm - N/A   Clear
6:25 AM 60.8 °F - 60.8 °F 100% 30.09 in 6.0 mi Calm Calm - N/A   Scattered Clouds
6:53 AM 62.1 °F - 62.1 °F 100% 30.06 in 6.0 mi Calm Calm - N/A   Partly Cloudy
7:53 AM 64.9 °F - 64.0 °F 97% 30.08 in 4.0 mi Calm Calm - N/A   Partly Cloudy
8:53 AM 71.1 °F - 68.0 °F 90% 30.09 in 9.0 mi Calm Calm - N/A   Clear
9:53 AM 79.0 °F - 70.0 °F 74% 30.08 in 10.0 mi Calm Calm - N/A   Clear
10:53 AM 84.9 °F 89.4 °F 70.0 °F 61% 30.08 in 10.0 mi Calm Calm - N/A   Clear
11:53 AM 88.0 °F 90.3 °F 66.0 °F 48% 30.06 in 10.0 mi ESE 4.6 mph - N/A   Clear
12:53 PM 90.0 °F 90.6 °F 63.0 °F 40% 30.05 in 10.0 mi East 6.9 mph - N/A   Partly Cloudy
1:53 PM 91.0 °F 91.9 °F 63.0 °F 39% 30.04 in 10.0 mi NE 4.6 mph - N/A   Partly Cloudy
2:53 PM 90.0 °F 88.8 °F 57.9 °F 34% 30.02 in 10.0 mi Variable 3.5 mph - N/A   Clear
3:53 PM 91.0 °F 90.9 °F 61.0 °F 36% 30.01 in 10.0 mi East 5.8 mph - N/A   Clear
4:53 PM 90.0 °F 90.6 °F 63.0 °F 40% 30.01 in 10.0 mi East 5.8 mph - N/A   Clear
5:53 PM 89.1 °F 91.0 °F 64.9 °F 45% 30.00 in 10.0 mi East 4.6 mph - N/A   Clear
6:53 PM 87.1 °F 89.2 °F 66.0 °F 49% 29.99 in 10.0 mi ENE 3.5 mph - N/A   Clear
7:53 PM 82.0 °F 85.9 °F 70.0 °F 67% 30.00 in 10.0 mi Calm Calm - N/A   Clear
8:53 PM 77.0 °F - 69.1 °F 76% 30.01 in 10.0 mi Calm Calm - N/A   Clear
9:53 PM 73.9 °F - 68.0 °F 82% 30.03 in 10.0 mi Calm Calm - N/A   Clear
10:53 PM 72.0 °F - 69.1 °F 91% 30.04 in 10.0 mi Calm Calm - N/A   Clear
11:53 PM 71.1 °F - 68.0 °F 90% 30.05 in 10.0 mi Calm Calm - N/A   Clear